Zurück zum Katalog

STARLINK-35407

AktivKommunikationVLEO
NORAD 66334·PAYLOAD·🇺🇸 United States

Gestartet Nov 6, 2025 von Cape Canaveral Space Force Station

Loading…

Nächste Überflüge (nächste 24 Stunden)

TLE

AktuellSource: CelesTrak SupGP

Epoche: Sep 15, 2026, 03:35 UTC

1 66334C 25253R   26258.14979167 -.00060185  00000+0 -21805-2 0  2583
2 66334  43.0028 222.2921 0001325 270.9624  60.3596 15.27599624    12

Verfolge STARLINK-35407 in Echtzeit mit AllMySat

Download on the App Store